Location: La Fredeussais
(48.1780°N, 1.3980°W)
Time: 18:43:37
(UTC+00:00)

Cosmos 2082 Rocket - Pass Details

Date: 09 May 2021
Orbit: 834 x 853 km, 71.0° (Epoch: 21 June)

Event Time Altitude Azimuth Distance (km) Brightness Sun altitude
Rises 23:49:08 0° 318° (NW) 3,391 6.1 -24.1°
Reaches altitude 10° 23:52:29 10° 298° (WNW) 2,453 5.0 -24.2°
Maximum altitude 23:55:46 16° 262° (W) 2,052 4.1 -24.2°
Enters shadow 23:56:32 16° 252° (WSW) 2,074 4.1 -24.2°
